Résultats

La Montagnarde / 2010
62 - Ablain St Nazaire - Pas-de-Calais - France

24

May



10 Km
Running (on road)

279 arrivants
239 hommes | 40 femmes
temps moyen : 00:54:01


classement statistiques modifier le filtre
cliquez sur le nom du participant pour consulter le détail des temps

Class. Temps Nom Club Dossard Categ.  
2 00:34:00 DOUGUET ALAIN AS MARQUETTE 295 V1 M
6 00:36:44 BOURDON THIERRY 58 V1 M
7 00:37:45 BLOQUET PATRICK COURRIR ENSEMBLE SNCF 113 V1 M
9 00:38:10 COREAU OLIVIER JOGGING CROSS BULLY 158 V1 M
11 00:38:46 VARIN JEROME AS SOMAIN 105 V1 M
12 00:38:57 CLEMENT JACKY JOG'ABLAIN 45 V1 M
15 00:39:45 LEFEBVRE DAVID COURRIR ENSEMBLE SNCF 141 V1 M
20 00:42:45 HUE DIDIER 97 V1 M
25 00:43:11 FEBVIN DAVID 148 V1 M
32 00:44:04 LIMOUSIN ERIC 298 V1 M
33 00:44:12 DUPLA LAURENT 47 V1 M
34 00:44:21 GAUGUERY STEPHANE US BIACHE 125 V1 M
43 00:45:47 NOTTEAU JEAN-MARIE 121 V1 M
44 00:45:48 LAMPIN DAVID 175 V1 M
45 00:45:50 RANSON HERVE SERVIN AC 74 V1 M
49 00:45:59 PENEZ JEAN JACQUES 202 V1 M
50 00:46:01 HEDOIRE LIONEL 166 V1 M
55 00:46:27 BASSEUX PAUL RC ARRAS 220 V1 M
56 00:46:41 DORNE FRANCIS 61 V1 M
61 00:47:05 GRABARZ BERTRAND SERVIN AC 11 V1 M
62 00:47:07 DECOONINCK PASCAL 193 V1 M
65 00:47:22 LEROY MAURICE - HENRI CH CAMBRAI 88 V1 M
70 00:47:59 NOULETTE JEAN CLAUDE LES COUREURS DU LOUP BLANC 185 V1 M
71 00:48:04 RECOLET ERIC JOGGING CROSS BULLY 112 V1 M
73 00:48:14 MEROUANE CHRISTIAN CARABINNIER BILLY MONTIGNY 197 V1 M
74 00:48:16 ASSELIN PHILIPPE JOGGING CROSS BULLY 157 V1 M
79 00:48:36 GREBAUX JEAN-CLAUDE US BIACHE 7 V1 M
83 00:49:00 MERVILLE BRUNO TC AVION 335 V1 M
86 00:49:15 TISSERAND XAVIER 145 V1 M
87 00:49:16 BELLET BRUNO 92 V1 M
88 00:49:17 CORGIAT MICHEL 22 V1 M
92 00:49:43 DUPORGE DANY 14 V1 M
96 00:50:10 LESNIAK CHRISTIAN 294 V1 M
97 00:50:15 DIUHET BRUNO USA LIEVIN ATHLETISME 174 V1 M
98 00:50:37 SWIDER PASCAL JC BILLY BERCLEAU 176 V1 M
99 00:50:46 LEVEL CEDRIC 307 V1 M
101 00:50:56 DAMBRINE CHRISTOPHE 26 V1 M
103 00:51:00 ROBILLART PASCAL 290 V1 M
107 00:51:21 CHUFFART CHRISTOPHE PLANETE RUNNING 116 V1 M
108 00:51:28 LEBOURG PATRICK 200 V1 M
111 00:51:48 DELOZIEN JEAN-CLAUDE 99 V1 M
112 00:51:49 LEPILLIET PATRICK VTEAM ST POLOIS 323 V1 M
113 00:52:03 CLAISSE PASCAL JC MONTIGNY 80 V1 M
114 00:52:06 BULGHERONI HERVE 67 V1 M
115 00:52:08 KWASIGROCK BERNARD 35 V1 M
118 00:52:34 WIERCIOCK BERNARD JCPLP LAMBRES 13 V1 M
120 00:52:41 FRESKO CLAUDE 33 V1 M
123 00:52:50 BEAUMONT JEAN PIERRE 219 V1 M
127 00:53:07 BAYART SYLVAIN 75 V1 M
128 00:53:07 TALAGA FREDERIC JOGGING CROSS BULLY 280 V1 M
129 00:53:08 RICQ PASCAL 40 V1 M
131 00:53:13 WANQUETIN BRUNO US BIACHE 128 V1 M
132 00:53:15 CARIDROIT DOMINIQUE US BIACHE 123 V1 M
133 00:53:16 CHAPUIS DOMINIQUE 71 V1 M
135 00:53:40 ANCELIN DOMINIQUE DURISOTI 206 V1 M
141 00:54:06 ARBINET DENIS 69 V1 M
147 00:54:27 DALLONGEVILLE FREDDY 101 V1 M
163 00:55:40 VANOUVERCOUP LAURENT 331 V1 M
165 00:56:04 GOUY PATRICE 221 V1 M
166 00:56:08 ALLARD ERIC COLLECTIF LOOSSOIS 44 V1 M
169 00:56:19 KWASIGROCK CHRISTIAN 36 V1 M
177 00:57:24 DEVAUX ERIC CG HAUBOURDIN 201 V1 M
187 00:58:00 DORNE STEPHANE 62 V1 M
191 00:58:24 PARMENT FABIEN ARTOIS ATHLETISME 90 V1 M
194 00:58:34 HAULTCOEUR OLIVIER 160 V1 M
195 00:58:35 HADJ MOHAMED OUAHIBA RC ARRAS 299 V1 M
196 00:58:36 ROIG JEAN FRANCOIS 332 V1 M
204 00:59:14 MAIRE-VIGUEUR ROLAND 308 V1 M
207 00:59:30 CRESSON PHILIPPE US ABLAIN 10 V1 M
209 00:59:51 THOREZ CHRISTOPHE 186 V1 M
211 01:00:43 TIRTAIN FREDERIC JOGGING CROSS BULLY 326 V1 M
212 01:00:47 BLOND VINCENT 162 V1 M
213 01:00:48 DEWALLET THIERRY 318 V1 M
215 01:00:50 TIQUET DAVID 78 V1 M
223 01:01:59 PAYEN GILLES 68 V1 M
224 01:02:21 LAMPIN MICKAEL 288 V1 M
229 01:02:32 BALLART MICHEL CMCAS DOUAI 55 V1 M
230 01:02:38 THOREZ JEAN PHILIPPE 108 V1 M
231 01:02:44 LEBLANC JEAN MICHEL 204 V1 M
233 01:03:10 BIENFAIT JEAN CLAUDE 203 V1 M
242 01:05:59 LAURENT ERIC 34 V1 M
245 01:07:30 LEBLAN CHRISTOPHE US BIACHE 301 V1 M
258 01:12:21 TOUPIN JEAN YVES 277 V1 M
99999 BEAUMONT JEAN-PIERRE 156 V1 M
99999 DELORY CHRISTOPHE AS SIMENCOURT 315 V1 M
99999 PETIT LAURENT JOGGING CROSS BULLY 29 V1 M

Début  Précédent 1 Suivant  Fin  



























COPYRIGHT / RESPONSABILITE
Toute reproduction de notre calendrier (qu'elle soit partielle ou complète) ou d'une fiche descriptive pour un usage autre que personnel, ou toute utilisation dans le cadre d'une prospection commerciale des coordonnées diffusées donnera lieu immédiatement à une procédure en justice.

Les résultats sont diffusés à titre indicatif sur la base d'informations déclaratives lors de l'inscription, et communiquées par les chronométreurs ou les organisateurs. La responsabilité de Le-Sportif.com ne pourra en aucun cas être engagée en cas de contestation ou litige sur les dites informations.



Copyright © 2002 - 2020 / Studiodev SARL / Le-Sportif / Registration4all
All rights reserved.
CNIL declaration number: 1999972